Regional Weather Roundup
Issued by NWS State College, PA

Home | Current Version | Previous Version | Text Only | Print | Product List | Glossary On
Versions: 1 2 3 4 5 6 7 8 9 10 11 12 13 14 15 16 17 18 19 20 21 22 23 24 25 26 27 28 29 30 31 32 33 34 35 36 37 38 39 40 41 42 43 44 45 46 47 48 49 50
000
ASUS41 KCTP 290703
RWRCTP

REGIONAL WEATHER ROUNDUP
NATIONAL WEATHER SERVICE STATE COLLEGE PA
300 AM EDT WED JUL 29 2015

Note: "fair" indicates few or no clouds below 12,000 feet with no
significant weather and/or obstructions to visibility.

* = STATION THAT DOES NOT REPORT PRECIPITATION /E.G. RAIN...SNOW...ETC/
    THUNDER OR FOG.

PAZ002>004-007>009-013>016-020>023-029>032-290800-
WESTERN PENNSYLVANIA

CITY           SKY/WX    TMP DP  RH WIND       PRES   REMARKS
ERIE           PTCLDY    71  60  68 CALM      30.00F
MEADVILLE      LGT RAIN  67  59  75 CALM      30.04F
FRANKLIN*      CLEAR     64  61  88 CALM      30.05F
NEW CASTLE     FAIR      68  67  96 CALM      30.02F
BEAVER COUNTY  NOT AVBL
BUTLER*        CLEAR     64  63  94 NE6       30.04S
PITTSBURGH INT CLEAR     73  65  75 CALM      30.00F
PITTSBURGH     CLEAR     74  64  71 NE3       30.00F
INDIANA*       PTCLDY    66  63  88 E6        30.06F
LATROBE        NOT AVBL
WASHINGTON CO* NOT AVBL
$$

PAZ004>006-010>012-017>019-024>028-033>037-041-042-045-046-049>053-290800-
CENTRAL PENNSYLVANIA

CITY           SKY/WX    TMP DP  RH WIND       PRES   REMARKS
BRADFORD       CLEAR     59  57  93 CALM      30.08F
DUBOIS         CLEAR     66  60  81 E5        30.05F
CLEARFIELD     CLEAR     62  59  90 N3        30.06F
JOHNSTOWN      CLEAR     69  64  84 CALM      30.07F
ALTOONA        PTCLDY    66  62  87 E3        30.04F
STATE COLLEGE  CLEAR     64  64  98 CALM      30.03F FOG
WILLIAMSPORT   PTCLDY    67  64  90 CALM      30.00F
SELINSGROVE    CLEAR     65  63  93 CALM      30.02F FOG
FT INDIANTOWN  CLEAR     68  67  98 CALM      30.00F
CAPITAL CITY   CLEAR     71  66  84 W3        29.99F
HARRISBURG     PTCLDY    74  69  85 N3        29.98F
YORK           CLEAR     67  65  93 CALM      30.00F FOG
$$

PAZ038>040-043-044-047-048-054-055-060>062-067>071-290800-
EASTERN PENNSYLVANIA

CITY           SKY/WX    TMP DP  RH WIND       PRES   REMARKS
SCRANTON       CLEAR     69  62  78 E6        30.02F
MOUNT POCONO   CLEAR     62  59  90 CALM      30.07F
ALLENTOWN      CLEAR     70  67  90 NW3       29.99F
QUAKERTOWN*    SUNNY     68  66  94 CALM      30.00F
READING        CLEAR     71  66  84 CALM      29.99F
LANCASTER      CLEAR     70  68  93 SE3       30.00F FOG
COATESVILLE    SUNNY     72  70  94 W3        30.01F
POTTSTOWN      CLEAR     70  70 100 CALM      30.01S
BLUE BELL        N/A     70  70 100 CALM      29.98F
DOYLESTOWN     CLEAR     71  70  96 S3        29.98F
WILLOW GROVE   NOT AVBL
NORTH PHILA    CLEAR     76  69  79 CALM      29.99F
PHILADELPHIA   PTCLDY    79  73  82 SW5       29.98F
$$



USA.gov is the U.S. government's official web portal to all federal, state and local government web resources and services.